Home > Weather > Linden > Past weeks

Flag for Guyana Past Weather in Linden, Guyana — Yesterday and Last 2 Weeks

Now
79 °F

Broken clouds.


Feels Like: 82 °F
Forecast: 75 / 87 °F
Wind: 5 mph from East

Location: Georgetown/Cheddi Jagan International Airport

Current Time: Jun 25, 2016 at 12:03:10 PM

Latest Report: Jun 25, 2016 at 11:00 AM


Visibility: N/A

Pressure: 29.95 "Hg

Humidity: 89%

Dew Point: 75 °F

Location of LindenLocation

Past Weather in Linden — Graph

°F

Linden Temperature Yesterday

Maximum temperature yesterday: 86 °F (at 2:00 PM)
Minimum temperature yesterday: 73 °F (at 4:00 AM)
Average temperature yesterday: 79 °F

High & Low Weather Summary for the Past Weeks

 TemperatureHumidityPressure
High90 °F (Jun 10, 1:30 PM)100% (Jun 11, 6:00 AM)30.07 "Hg (Jun 11, 6:00 AM)
Low72 °F (Jun 12, 5:00 AM)59% (Jun 10, 1:30 PM)29.83 "Hg (Jun 18, 3:00 PM)
Average79 °F89%29.97 "Hg
* Reported Jun 10 11:00 AM — Jun 25 11:00 AM, Linden, Weather by CustomWeather, © 2016

Note: Actual official high and low records may vary slightly from our data, if they occured in-between our weather recording intervals... More about our weather records

Advertising

Linden Weather History for the Previous 24 Hours

Scroll right to see more
 ConditionsComfort  
Time TempWeatherWind HumidityBarometerVisibility
11:00 AM
Sat, Jun 25
79 °FBroken clouds.5 mph89%29.95 "HgN/A
10:00 AM77 °FSprinkles. Partly sunny.9 mph94%29.95 "Hg5 mi
9:00 AM82 °FRain showers. Partly sunny.21 mph79%29.95 "Hg3 mi
8:00 AM81 °FScattered clouds.No wind89%29.92 "HgN/A
7:00 AM75 °FBroken clouds.No wind100%29.92 "Hg5 mi
6:00 AM73 °FFog.No wind100%29.92 "Hg0 mi
5:00 AM73 °FPassing clouds.No wind100%29.92 "Hg6 mi
2:00 AM73 °FPassing clouds.No wind100%29.92 "Hg6 mi
1:00 AM75 °FPassing clouds.No wind100%29.92 "Hg6 mi
12:00 AM75 °FSprinkles. Passing clouds.No wind100%29.98 "Hg6 mi
11:00 PM
Fri, Jun 24
77 °FPassing clouds.5 mph94%29.95 "HgN/A
10:00 PM77 °FSprinkles. Passing clouds.5 mph94%29.95 "HgN/A
9:00 PM77 °FSprinkles. Partly cloudy.5 mph94%29.92 "HgN/A
8:00 PM75 °FPassing clouds.No wind100%29.98 "HgN/A
7:00 PM81 °FPassing clouds.7 mph84%29.89 "HgN/A
6:00 PM81 °FPartly sunny.9 mph84%29.86 "HgN/A
5:00 PM84 °FBroken clouds.7 mph74%29.83 "HgN/A
4:00 PM84 °FBroken clouds.7 mph74%29.86 "HgN/A
3:00 PM84 °FScattered clouds.9 mph74%29.86 "HgN/A
2:00 PM86 °FPartly sunny.14 mph75%29.89 "HgN/A
1:00 PM82 °FSprinkles. Partly sunny.5 mph84%29.92 "Hg5 mi
12:00 PM84 °FSprinkles. Partly sunny.12 mph74%29.95 "Hg5 mi
Weather by CustomWeather, © 2016

See weather overviewHow to use our weather pages